Location: Newark
(39.0622°N, 106.5590°E)
Time: 02:58:52
(UTC+00:00)

S-56A Canister/Altair - All Passes

Search period start: 20 January 2020 00:00
Search period end: 30 January 2020 00:00
Orbit: 634 x 2498 km, 38.9° (Epoch: 19 January)

Date Brightness Start Highest point End Pass type
(mag) Time Alt. Az. Time Alt. Az. Time Alt. Az.
20 Jan - 13:29:48 10° SSW 13:34:39 27° SSE 13:38:37 10° E visible
20 Jan - 15:33:12 10° WSW 15:38:03 74° SSE 15:42:29 10° E night (unlit)
20 Jan - 17:37:09 10° W 17:41:35 82° S 17:46:36 10° E night (unlit)
20 Jan - 19:40:44 10° W 19:45:05 36° SSW 19:50:44 10° SE visible
20 Jan - 21:47:35 10° SW 21:48:50 11° SSW 21:50:09 10° SSW visible
21 Jan - 12:57:03 10° SSW 13:02:04 25° SSE 13:06:04 10° E visible
21 Jan - 15:00:25 10° WSW 15:05:32 68° SSE 15:09:55 10° E night (unlit)
21 Jan - 17:04:34 10° W 17:09:04 86° S 17:13:49 10° E night (unlit)
21 Jan - 19:08:14 10° W 19:12:32 40° SSW 19:17:52 10° SE night (unlit)
21 Jan - 21:14:11 10° SW 21:16:08 12° SSW 21:18:16 10° SSW visible
22 Jan - 12:24:16 10° SSW 12:29:26 23° SSE 12:33:31 10° E visible
22 Jan - 14:27:32 10° WSW 14:33:00 63° SSE 14:37:26 10° E visible
22 Jan - 16:31:56 10° W 16:36:33 88° S 16:41:07 10° E night (unlit)
22 Jan - 18:35:44 10° W 18:39:59 44° SSW 18:45:03 10° SE night (unlit)
22 Jan - 20:41:07 10° WSW 20:43:28 13° SSW 20:46:05 10° S visible
23 Jan - 11:51:28 10° SSW 11:56:46 21° SSE 12:00:56 10° ESE visible
23 Jan - 13:54:35 10° WSW 14:00:27 58° SSE 14:04:59 10° E visible
23 Jan - 15:59:12 10° W 16:04:01 89° SSW 16:08:29 10° E night (unlit)
23 Jan - 18:03:12 10° W 18:07:28 48° SSW 18:12:19 10° SE night (unlit)
23 Jan - 20:08:13 10° WSW 20:10:50 14° SSW 20:13:48 10° S night (unlit)
24 Jan - 11:18:39 10° SSW 11:24:03 20° SSE 11:28:19 10° ESE visible
24 Jan - 13:21:34 10° WSW 13:27:53 54° SSE 13:32:33 10° E visible
24 Jan - 15:26:22 10° W 15:31:30 89° SSE 15:35:56 10° E night (unlit)
24 Jan - 17:30:37 10° W 17:34:58 54° SSW 17:39:37 10° ESE night (unlit)
24 Jan - 19:35:23 10° WSW 19:38:14 16° SSW 19:41:27 10° S night (unlit)
25 Jan - 10:45:51 10° S 10:51:18 19° SSE 10:55:39 10° ESE visible
25 Jan - 12:48:28 10° SW 12:55:15 50° SSE 13:00:08 10° E visible
25 Jan - 14:53:27 10° W 14:58:58 88° SSE 15:03:26 10° E visible
25 Jan - 16:57:58 10° W 17:02:28 61° SSW 17:06:59 10° ESE night (unlit)
25 Jan - 19:02:36 10° WSW 19:05:40 18° SSW 19:09:05 10° SSE night (unlit)
26 Jan - 10:13:03 10° S 10:18:30 17° SSE 10:22:53 10° ESE daylight
26 Jan - 12:15:19 10° SW 12:22:36 47° SSE 12:27:43 10° E visible
26 Jan - 14:20:26 10° W 14:26:23 86° S 14:30:59 10° E visible
26 Jan - 16:25:14 10° W 16:29:58 67° SSW 16:34:24 10° ESE night (unlit)
26 Jan - 18:29:50 10° WSW 18:33:08 20° SSW 18:36:43 10° SSE night (unlit)
27 Jan - 09:40:20 10° S 09:45:40 16° SSE 09:50:02 10° ESE daylight
27 Jan - 11:42:06 10° SW 11:49:54 44° SSE 11:55:18 10° E visible
27 Jan - 13:47:18 10° W 13:53:47 84° S 13:58:33 10° E visible
27 Jan - 15:52:26 10° W 15:57:29 74° SSW 16:01:52 10° ESE night (unlit)
27 Jan - 17:57:04 10° W 18:00:38 23° SSW 18:04:21 10° SSE night (unlit)
28 Jan - 09:07:41 10° S 09:12:47 15° SE 09:17:03 10° ESE daylight
28 Jan - 11:08:51 10° SW 11:17:09 41° SSE 11:22:51 10° E visible
28 Jan - 13:14:05 10° WSW 13:21:10 81° S 13:26:09 10° E visible
28 Jan - 15:19:31 10° W 15:24:56 79° SSW 15:29:24 10° ESE night (unlit)
28 Jan - 17:24:17 10° W 17:28:09 27° SSW 17:31:59 10° SSE night (unlit)
29 Jan - 08:35:12 10° S 08:39:51 14° SE 08:43:51 10° ESE daylight
29 Jan - 10:35:34 10° SW 10:44:20 39° SSE 10:50:23 10° E visible
29 Jan - 12:40:46 10° WSW 12:48:29 77° S 12:53:46 10° E visible
29 Jan - 14:46:32 10° W 14:52:23 84° S 14:56:57 10° E visible
29 Jan - 16:51:28 10° W 16:55:40 32° SSW 16:59:38 10° SE night (unlit)
